#timestamp,LO_Frequency,Hit,StdDev 
1575417615.2,286047000.8,N
1575417635.0,286046999.8,N
1575417635.9,286046999.8,N
1575417655.8,286046999.8,N
1575417675.6,286047000.6,N
1575417695.4,286047001.2,N
1575417715.3,286047002.0,N
1575417735.1,286047003.9,N
1575417755.8,286047002.3,N
1575417775.7,286047000.8,N
1575417795.5,286047000.8,N
1575417815.3,286047003.5,N
1575417835.2,286047003.0,N
1575417855.0,286047007.4,Y
1575417855.9,286047007.4,P
1575417875.8,286047004.2,N
1575417895.6,286047001.3,N
1575417915.4,286047002.3,N
1575417935.3,286047001.8,N
1575417955.1,286047001.9,N
1575417975.9,286047005.1,N
1575417995.7,286047004.0,N
1575418015.5,286047001.9,N
1575418035.4,286047002.8,N
1575418055.2,286047003.5,N
1575418075.0,286047001.8,N
1575418075.9,286047001.8,N
1575418095.8,286047003.9,N
1575418115.6,286047004.3,N
1575418135.5,286046999.7,N
1575418155.3,286046999.8,N
1575418175.1,286047004.3,N
1575418195.9,286047003.4,N
1575418215.7,286047002.5,N
1575418235.5,286047002.4,N
1575418255.4,286047001.3,N
1575418275.2,286047003.9,N
1575418295.1,286046999.7,N
1575418296.0,286046999.7,N
1575418315.8,286046998.7,N
1575418335.6,286046999.2,N
1575418355.5,286046999.3,N
1575418375.3,286047004.3,N
1575418395.1,286047000.2,N
1575418415.9,286046999.4,N
1575418435.7,286046997.0,N
1575418455.6,286046998.9,N
1575418475.4,286046999.3,N
1575418495.2,286046998.2,N
1575418515.1,286046998.7,N
1575418516.0,286046998.7,N
1575418535.8,286046999.0,N
1575418555.6,286046998.9,N
1575418575.5,286046998.6,N
1575418595.3,286046998.4,N
1575418615.2,286047000.1,N
1575418635.9,286047001.3,N
1575418655.7,286047002.2,N
1575418675.6,286047002.0,N
1575418695.4,286047003.9,N
1575418715.2,286047004.2,N
1575418735.1,286047003.8,N
1575418736.0,286047003.8,N
1575418755.8,286047001.9,N
1575418775.7,286047001.4,N
1575418795.5,286047004.0,N
1575418815.3,286047005.2,N
1575418835.2,286047005.4,N
1575418855.0,286047006.0,N
1575418855.9,286047006.0,N
1575418875.7,286047001.5,N
1575418895.6,286047004.8,N
1575418915.4,286047005.6,N
1575418965.3,286047006.3,E
1575418975.2,286047005.9,N
1575418995.0,286047001.4,P
1575418995.9,286047001.4,N
1575419015.8,286047002.9,N
1575419035.6,286047002.9,N
1575419055.5,286047002.8,N
1575419075.3,286046999.0,N
1575419095.1,286046998.7,N
1575419115.9,286046998.6,N
1575419135.7,286046999.2,N
1575419155.5,286047000.9,N
1575419175.4,286046999.0,N
1575419195.2,286046997.9,N
1575419215.1,286046994.2,N
1575419216.0,286046994.2,N
1575419235.8,286046993.5,N
1575419255.6,286046993.9,N
1575419275.5,286046995.7,N
1575419295.3,286046995.4,N
1575419315.1,286046996.1,N
1575419335.9,286046995.2,N
1575419355.7,286046998.0,N
1575419375.6,286046995.2,N
1575419395.4,286046995.0,N
1575419415.2,286046993.9,N
1575419435.1,286046996.4,N
1575419436.0,286046996.4,N
1575419455.8,286046994.9,N
1575419475.6,286046996.0,N
1575419495.5,286046993.8,N
1575419515.3,286046993.6,N
1575419535.2,286046997.6,N
1575419555.9,286046997.3,N
1575419575.7,286047000.7,N
1575419595.6,286046998.5,N
1575419615.4,286047000.4,N
1575419635.2,286047000.7,N
1575419655.1,286046998.6,N
1575419656.0,286046998.6,N
1575419675.8,286046998.7,N
1575419695.7,286046997.0,N
1575419715.5,286046997.2,N
1575419735.3,286046994.9,N
1575419755.2,286046995.9,N
1575419775.0,286046995.3,N
1575419775.9,286046995.3,N
1575419795.8,286046995.8,N
1575419815.6,286046996.1,N
1575419835.4,286046995.7,N
1575419855.3,286046995.6,N
1575419875.1,286046995.4,N
1575419895.8,286046997.6,N
1575419915.7,286046994.0,Y
1575419935.5,286046996.5,P
1575419955.4,286047002.4,P
1575419975.2,286047002.3,N
1575419995.0,286047000.6,N
1575419995.9,286047000.6,N
1575420015.8,286046998.8,N
1575420035.6,286046998.1,N
1575420055.5,286047000.9,N
1575420075.3,286046999.9,N
1575420095.1,286046998.6,N
1575420115.9,286046998.4,N
1575420135.7,286046997.5,N
1575420155.5,286046999.0,N
1575420175.4,286047002.8,N
1575420195.2,286047001.6,N
1575420215.1,286047002.7,N
1575420216.0,286047002.7,N
1575420235.8,286047001.1,N
1575420255.6,286047000.8,N
1575420275.5,286046998.2,N
1575420295.3,286047002.4,N
1575420315.1,286047001.2,N
1575420335.9,286047002.4,N
1575420355.7,286047002.4,N
1575420375.6,286046998.6,N
1575420395.4,286046999.5,N
1575420415.2,286046998.5,N
1575420435.1,286046998.4,N
1575420436.0,286046998.4,N
1575420455.8,286046998.9,N
1575420475.6,286046998.7,N
1575420495.5,286046996.5,N
1575420515.3,286046998.1,N
1575420535.1,286047002.3,N
1575420555.9,286047000.4,N
1575420575.7,286047000.5,N
1575420595.6,286046998.2,N
1575420615.4,286046998.2,N
1575420635.2,286046999.2,N
1575420655.1,286046996.5,N
1575420656.0,286046996.5,N
1575420675.8,286046998.7,N
1575420695.7,286046997.3,N
1575420715.5,286046995.2,N
1575420735.3,286046998.3,N
1575420755.2,286046998.8,N
1575420775.0,286046995.0,N
1575420775.9,286046995.0,N
1575420795.7,286046995.0,N
1575420815.6,286046998.6,N
1575420835.4,286046998.5,N
1575420855.3,286047000.8,N
1575420875.1,286047001.2,N
1575420876.0,286047001.2,N
1575420895.8,286047001.2,N
1575420915.7,286046998.7,N
1575420935.5,286046996.6,N
1575420955.3,286046998.6,N
1575420975.2,286046999.3,N
1575420995.0,286046999.2,N
1575420995.9,286046999.2,N
1575421015.8,286046998.9,N
1575421035.6,286047000.1,N
1575421055.4,286047000.1,N
1575421075.3,286046998.5,N
1575421095.1,286046998.1,N
1575421115.8,286047001.1,N
1575421135.7,286047001.2,N
1575421155.5,286047001.0,N
1575421175.4,286046998.3,N
1575421195.2,286046998.1,N
